星链-36661(STARLINK-36661)

导读

STARLINK-36661是美国太空探索技术公司(SpaceX)于2026年2月16日发射的Starlink v1.5低轨通信卫星,属于星链(Starlink)卫星互联网项目。该卫星运行在近地轨道,近地点约477公里,远地点约478公里,具备激光星间链路功能,可直接实现卫星间通信,旨在为全球用户提供高速宽带互联网服务,扩展星链网络覆盖范围,提升网络性能与可靠性,服务偏远地区网络接入、全球通信等多场景需求。

基本信息
目录编号:
67831
目录名称:
STARLINK-36661
国际标识:
2026-033L
轨道中心:
EARTH
卫星名称:
星链-36661
卫星全名:
星链-36661(STARLINK-36661)
卫星状态:
在轨 (已飞行200 天)
发射日期:
2026-02-16 UTC
国别 :
美国 (US)
星等 :
--
轨道信息
数据来源 国际轨道数据
星历时间: 2026-09-04T00:48:49+0800
16小时前
查看轨道信息
半长轴: 6861.113km
偏心率: 0.0001827
轨道倾角: 43.003°
近地点辐角 281.580°
升交点赤经 342.171°
平近点角 78.484°
近地点: 481.722km
远地点: 484.23km
周期: 94.265分钟
每日圈数: 15.276046
详细信息
固有亮度:
5
最大亮度:
2.5
卫星平台:
Starlink V1.0
覆盖范围:
全球
运营商:
太空探索技术公司
运营商所在国:
美国
制造商(研发单位):
太空探索技术公司
制造商所在国:
美国
使用方式:
暂无
卫星简介
Starlink 计划是 SpaceX 推出的全球卫星互联网项目,通过发射低轨道卫星,为全球尤其是偏远地区提供高速、低延迟的互联网服务。自 2019 年起,Starlink 已部署数千颗卫星,旨在缩小全球数字鸿沟,推动互联网普及。该项目还为军事、航空等行业提供通信支持,带来广泛经济效益。
2D轨道图
3D轨道图
轨道高度分析图
轨道倾角分析图
轨道综合分析图
查看轨道综合分析图
交会数据列表
事件ID 空间交会对象 最接近时刻(TCA) 交会距离 交会风险概率(CRP) 交会风险指数(CRI) 操作
CDM_260904-200805-845106-783121
2026-09-04T
20:08:33+0000
0.442 km
远距离
2.091451E-4 高风险 0.81
CDM_260906-015805-941706-783121
2026-09-06T
01:58:41+0000
0.476 km
远距离
1.806713E-4 高风险 0.8
CDM_260905-075405-845106-783121
2026-09-05T
07:54:43+0000
0.680 km
远距离
6.975082E-5 中风险 0.72
CDM_260906-005305-734406-783121
2026-09-06T
00:53:15+0000
0.712 km
远距离
1.80788E-5 中风险 0.6
CDM_260906-014905-953506-783121
2026-09-06T
01:49:08+0000
0.980 km
远距离
1.56629E-5 中风险 0.59
CDM_260906-085205-953506-783121
2026-09-06T
08:52:49+0000
1.059 km
极远距离
1.197019E-5 中风险 0.57
CDM_260906-031405-734406-783121
2026-09-06T
03:14:28+0000
0.922 km
远距离
7.572366E-6 低风险 0.53
CDM_260906-151805-941706-783121
2026-09-06T
15:18:59+0000
1.370 km
极远距离
6.858411E-6 低风险 0.52
CDM_260906-001405-953506-783121
2026-09-06T
00:14:59+0000
2.057 km
极远距离
1.54871E-6 低风险 0.39
CDM_260906-002405-941706-783121
2026-09-06T
00:24:32+0000
2.583 km
极远距离
1.305438E-6 低风险 0.37